TimeEDT,TemperatureF,Dew PointF,Humidity,Sea Level PressureIn,VisibilityMPH,Wind Direction,Wind SpeedMPH,Gust SpeedMPH,PrecipitationIn,Events,Conditions,WindDirDegrees,DateUTC
12:48 AM,78.8,73.4,83,30.16,10.0,ENE,8.1,-,N/A,,Mostly Cloudy,70,2012-10-05 04:48:00
12:53 AM,78.1,73.0,84,30.15,10.0,ENE,5.8,-,N/A,,Mostly Cloudy,60,2012-10-05 04:53:00
1:25 AM,78.8,73.4,83,30.14,10.0,North,4.6,-,N/A,,Scattered Clouds,360,2012-10-05 05:25:00
1:53 AM,75.9,73.0,91,30.14,8.0,Calm,Calm,-,N/A,,Partly Cloudy,0,2012-10-05 05:53:00
2:53 AM,77.0,73.0,88,30.14,10.0,Calm,Calm,-,N/A,,Clear,0,2012-10-05 06:53:00
3:53 AM,75.2,73.4,94,30.12,8.0,Calm,Calm,-,N/A,,Partly Cloudy,0,2012-10-05 07:53:00
4:53 AM,75.9,72.0,87,30.12,7.0,Calm,Calm,-,N/A,,Clear,0,2012-10-05 08:53:00
5:53 AM,75.9,73.0,91,30.12,7.0,North,3.5,-,N/A,,Clear,360,2012-10-05 09:53:00
6:53 AM,75.0,72.0,90,30.12,7.0,North,4.6,-,N/A,,Clear,350,2012-10-05 10:53:00
7:53 AM,75.0,72.0,90,30.13,5.0,North,4.6,-,N/A,,Clear,360,2012-10-05 11:53:00
8:53 AM,77.0,73.0,88,30.13,7.0,NNE,6.9,-,N/A,,Clear,30,2012-10-05 12:53:00
9:04 AM,77.0,73.4,89,30.13,8.0,North,5.8,-,N/A,,Partly Cloudy,10,2012-10-05 13:04:00
9:20 AM,77.0,73.4,89,30.13,8.0,NNE,6.9,-,N/A,,Mostly Cloudy,20,2012-10-05 13:20:00
9:45 AM,78.8,73.4,83,30.13,7.0,NNE,9.2,-,N/A,,Partly Cloudy,20,2012-10-05 13:45:00
9:53 AM,79.0,73.0,82,30.14,8.0,NNE,9.2,-,N/A,,Scattered Clouds,30,2012-10-05 13:53:00
10:13 AM,80.6,73.4,79,30.13,9.0,NNE,6.9,-,N/A,,Mostly Cloudy,20,2012-10-05 14:13:00
10:53 AM,81.0,73.0,77,30.13,10.0,NNE,9.2,-,N/A,,Mostly Cloudy,20,2012-10-05 14:53:00
11:05 AM,80.6,71.6,74,30.13,10.0,NNE,9.2,-,N/A,,Overcast,30,2012-10-05 15:05:00
11:33 AM,82.4,71.6,70,30.13,10.0,NE,9.2,-,N/A,,Scattered Clouds,40,2012-10-05 15:33:00
11:53 AM,82.0,72.0,71,30.13,10.0,NE,10.4,-,N/A,,Partly Cloudy,50,2012-10-05 15:53:00
12:53 PM,80.1,72.0,76,30.12,8.0,NE,8.1,-,0.00,Rain,Light Rain,50,2012-10-05 16:53:00
1:53 PM,81.0,72.0,74,30.09,10.0,ENE,13.8,-,0.00,,Mostly Cloudy,60,2012-10-05 17:53:00
2:02 PM,82.4,71.6,70,30.09,10.0,ENE,13.8,-,N/A,,Scattered Clouds,70,2012-10-05 18:02:00
2:53 PM,82.0,72.0,71,30.07,10.0,ENE,15.0,-,N/A,,Scattered Clouds,60,2012-10-05 18:53:00
3:53 PM,80.1,71.1,74,30.04,10.0,ENE,10.4,-,N/A,,Clear,70,2012-10-05 19:53:00
4:53 PM,79.0,72.0,79,30.04,10.0,ENE,8.1,-,N/A,,Clear,70,2012-10-05 20:53:00
5:53 PM,79.0,72.0,79,30.02,10.0,ENE,8.1,-,N/A,,Clear,70,2012-10-05 21:53:00
6:53 PM,79.0,72.0,79,30.03,10.0,East,8.1,-,N/A,,Partly Cloudy,80,2012-10-05 22:53:00
7:53 PM,78.1,72.0,81,30.04,10.0,ESE,4.6,-,N/A,,Scattered Clouds,110,2012-10-05 23:53:00
8:53 PM,79.0,72.0,79,30.04,10.0,East,3.5,-,N/A,,Mostly Cloudy,80,2012-10-06 00:53:00
9:12 PM,78.8,71.6,78,30.04,10.0,East,4.6,-,N/A,,Scattered Clouds,80,2012-10-06 01:12:00
9:53 PM,78.1,73.0,84,30.03,10.0,ESE,4.6,-,N/A,,Partly Cloudy,110,2012-10-06 01:53:00
10:14 PM,78.8,73.4,83,30.04,10.0,Calm,Calm,-,N/A,,Mostly Cloudy,0,2012-10-06 02:14:00
10:53 PM,78.1,72.0,81,30.04,10.0,Calm,Calm,-,N/A,,Mostly Cloudy,0,2012-10-06 02:53:00
11:53 PM,78.1,72.0,81,30.04,10.0,Calm,Calm,-,N/A,,Partly Cloudy,0,2012-10-06 03:53:00